User: anonymous   Login
Location: Unspecified
(0.0000°N, 0.0000°E)
Time: 19:03:07
(UTC+00:00)
Language:

USA 259 - Orbit

View from above orbital plane
View from above orbital plane
View from above satellite
View from above satellite

Ground track
Ground track

The orbit data is extracted from the following two-line orbital elements,

1 40344U 14081A   19045.21787936 0.00000000  00000-0  00000-0 0    04
2 40344  63.4239  32.0485 7193744 268.5394  15.8655  2.00619000    06
Epoch (UTC): 14 February 2019 05:13:44
Eccentricity: 0.7193744
inclination: 63.4239°
perigee height: 1074 km
apogee height: 39280 km
right ascension of ascending node: 32.0485°
argument of perigee: 268.5394°
revolutions per day: 2.00619000
mean anomaly at epoch: 15.8655°
orbit number at epoch: 0

The dashed part of the orbit path shows where the satellite is in the earth's shadow,  

DLR